Farmington, NM

4:37 AM MDT on July 21, 2017 (GMT -0600)
Four Corners Regional

Weather History for KFMN - January, 2013

Change the Weather History Date:

Tuesday, January 8, 2013

  Actual Average Record
Temperature  
Mean Temperature 20 °F -  
Max Temperature 36 °F 41 °F 51 °F (2006)
Min Temperature 5 °F 20 °F -1 °F (1979)
Degree Days  
Heating Degree Days 44    
Moisture  
Dew Point 11 °F    
Average Humidity 67    
Maximum Humidity 88    
Minimum Humidity 32    
Precipitation  
Precipitation 0.00 in - - ()
Sea Level Pressure  
Sea Level Pressure 30.27 in    
Wind  
Wind Speed 4 mph (ENE)    
Max Wind Speed 10 mph    
Max Gust Speed -    
Visibility 10 miles    
Events      
Averages and records for this station are not official NWS values.
T = Trace of Precipitation, MM = Missing Value Source: NWS Daily Summary

Daily Weather History Graph

Daily Weather History Graph

Search for Another Location

Airport or City:

Trip Planner

Search our weather history database for the weather conditions in past years. The results will help you decide how hot, cold, wet, or windy it might be!

Date:

Astronomy

Jan. 08, 2013 Rise Set
Actual Time 7:25 AM MST 5:14 PM MST
Civil Twilight 6:57 AM MST 5:42 PM MST
Nautical Twilight 6:25 AM MST 6:14 PM MST
Astronomical Twilight 5:53 AM MST 6:45 PM MST
Moon 4:02 AM MST (1/8) 2:18 PM MST (1/8)
Length of Visible Light 10h 45m
Length of Day
9h 48m
Waning Crescent, 13% of the Moon is Illuminated
Jan 8
Waning Crescent
Jan 11
New
Jan 18
First Quarter
Jan 26
Full
Feb 3
Last Quarter

Hourly Weather History & Observations

Time (MST) Temp. Windchill Dew Point Humidity Pressure Visibility Wind Dir Wind Speed Gust Speed Precip Events Conditions
12:53 AM 14.0 °F - 9.0 °F 80% 30.11 in 10.0 mi Calm Calm - N/A   Clear
1:53 AM 10.9 °F - 7.0 °F 84% 30.14 in 10.0 mi Calm Calm - N/A   Clear
2:53 AM 10.0 °F 3.6 °F 7.0 °F 87% 30.14 in 10.0 mi NE 3.5 mph - N/A   Clear
3:53 AM 9.0 °F 0.6 °F 6.1 °F 88% 30.16 in 10.0 mi NE 4.6 mph - N/A   Clear
4:53 AM 7.0 °F 0.1 °F 3.0 °F 84% 30.19 in 10.0 mi ENE 3.5 mph - N/A   Clear
5:53 AM 7.0 °F 0.1 °F 3.0 °F 84% 30.22 in 10.0 mi NNE 3.5 mph - N/A   Clear
6:53 AM 10.0 °F -1.9 °F 6.1 °F 84% 30.22 in 10.0 mi East 8.1 mph - N/A   Clear
7:53 AM 10.9 °F 1.4 °F 7.0 °F 84% 30.25 in 10.0 mi ENE 5.8 mph - N/A   Clear
8:53 AM 15.1 °F 9.4 °F 9.0 °F 77% 30.27 in 10.0 mi ESE 3.5 mph - N/A   Clear
9:53 AM 19.0 °F 13.9 °F 10.9 °F 71% 30.29 in 10.0 mi ENE 3.5 mph - N/A   Clear
10:53 AM 23.0 °F - 12.0 °F 63% 30.28 in 10.0 mi Calm Calm - N/A   Clear
11:53 AM 27.0 °F 23.0 °F 14.0 °F 58% 30.24 in 10.0 mi WNW 3.5 mph - N/A   Clear
12:53 PM 32.0 °F 27.5 °F 14.0 °F 48% 30.22 in 10.0 mi Variable 4.6 mph - N/A   Clear
1:53 PM 34.0 °F 26.0 °F 15.1 °F 46% 30.21 in 10.0 mi West 10.4 mph - N/A   Clear
2:53 PM 35.1 °F 29.3 °F 15.1 °F 44% 30.23 in 10.0 mi West 6.9 mph - N/A   Clear
3:53 PM 35.1 °F 31.0 °F 14.0 °F 42% 30.25 in 10.0 mi SE 4.6 mph - N/A   Clear
4:53 PM 34.0 °F 29.8 °F 16.0 °F 48% 30.28 in 10.0 mi SE 4.6 mph - N/A   Clear
5:53 PM 28.9 °F 23.9 °F 16.0 °F 58% 30.32 in 10.0 mi East 4.6 mph - N/A   Clear
6:53 PM 28.0 °F 20.8 °F 16.0 °F 61% 30.33 in 10.0 mi East 6.9 mph - N/A   Clear
7:53 PM 27.0 °F 17.3 °F 16.0 °F 63% 30.36 in 10.0 mi East 10.4 mph - N/A   Clear
8:53 PM 21.9 °F 14.5 °F 15.1 °F 75% 30.40 in 10.0 mi NNE 5.8 mph - N/A   Clear
9:53 PM 21.0 °F 12.4 °F 14.0 °F 74% 30.41 in 10.0 mi East 6.9 mph - N/A   Clear
10:53 PM 19.0 °F 10.0 °F 14.0 °F 81% 30.42 in 10.0 mi East 6.9 mph - N/A   Clear
11:53 PM 18.0 °F 12.7 °F 12.9 °F 81% 30.43 in 10.0 mi ENE 3.5 mph - N/A   Clear